| time (UTC) | temp F | wind direction | speed MPH | gust MPH | rain 1hr in | rain 24hr in | rain mn in | humidity % | barometer mb |
| 20260903105018 | 56 | 0.0 | 1.0 | 0.00 | 0.02 | 0.02 | 74 | 1021.3 | |
| 20260903104018 | 56 | 0.0 | 0.0 | 0.00 | 0.02 | 0.02 | 74 | 1021.3 | |
| 20260903103018 | 57 | 0.0 | 2.0 | 0.00 | 0.02 | 0.02 | 73 | 1021.2 | |
| 20260903102018 | 57 | 0.0 | 1.0 | 0.00 | 0.02 | 0.02 | 72 | 1020.9 | |
| 20260903101018 | 58 | 0.0 | 0.0 | 0.00 | 0.02 | 0.02 | 71 | 1020.8 | |
| 20260903100018 | 58 | 0.0 | 2.0 | 0.00 | 0.02 | 0.02 | 71 | 1020.8 | |
| 20260903095018 | 58 | 0.0 | 2.0 | 0.00 | 0.02 | 0.02 | 70 | 1020.7 | |
| 20260903094018 | 59 | 0.0 | 2.0 | 0.00 | 0.02 | 0.02 | 70 | 1020.6 | |
| 20260903093018 | 59 | 270 | 1.0 | 2.0 | 0.00 | 0.02 | 0.02 | 69 | 1020.4 |
| 20260903092018 | 60 | 0.0 | 1.0 | 0.00 | 0.02 | 0.02 | 68 | 1020.3 | |
| 20260903091019 | 60 | 0.0 | 2.0 | 0.00 | 0.02 | 0.02 | 68 | 1020.3 | |
| 20260903090018 | 61 | 0.0 | 1.0 | 0.00 | 0.02 | 0.02 | 66 | 1020.1 | |
| 20260903085018 | 61 | 270 | 1.0 | 2.0 | 0.00 | 0.02 | 0.02 | 66 | 1020.1 |
| 20260903084018 | 61 | 0.0 | 2.0 | 0.00 | 0.02 | 0.02 | 65 | 1019.9 | |
| 20260903083018 | 61 | 0.0 | 1.0 | 0.00 | 0.02 | 0.02 | 65 | 1019.7 | |
| 20260903082018 | 61 | 0.0 | 2.0 | 0.00 | 0.02 | 0.02 | 64 | 1019.7 | |
| 20260903081018 | 62 | 0.0 | 2.0 | 0.00 | 0.02 | 0.02 | 64 | 1019.7 | |
| 20260903080018 | 62 | 248 | 2.0 | 3.0 | 0.00 | 0.02 | 0.02 | 62 | 1019.6 |
| 20260903075018 | 62 | 248 | 1.0 | 3.0 | 0.00 | 0.02 | 0.02 | 62 | 1019.4 |
| 20260903074018 | 62 | 248 | 2.0 | 4.0 | 0.00 | 0.02 | 0.02 | 62 | 1019.4 |
| 20260903073018 | 62 | 248 | 2.0 | 4.0 | 0.00 | 0.02 | 0.02 | 61 | 1019.3 |
| 20260903072018 | 62 | 248 | 2.0 | 7.0 | 0.00 | 0.02 | 0.02 | 61 | 1019.0 |
| 20260903071018 | 62 | 0 | 3.0 | 6.0 | 0.00 | 0.02 | 0.02 | 60 | 1018.9 |
| 20260903070018 | 63 | 0 | 5.0 | 9.0 | 0.00 | 0.02 | 0.02 | 59 | 1018.8 |
| 20260903065018 | 63 | 0 | 1.0 | 2.0 | 0.00 | 0.02 | 0.02 | 60 | 1018.6 |
| 20260903064018 | 63 | 0 | 2.0 | 5.0 | 0.00 | 0.02 | 0.02 | 60 | 1018.6 |
| 20260903063018 | 63 | 248 | 5.0 | 11.0 | 0.00 | 0.02 | 0.02 | 59 | 1018.5 |
| 20260903062018 | 64 | 248 | 3.0 | 7.0 | 0.00 | 0.02 | 0.02 | 58 | 1018.4 |
| 20260903061018 | 63 | 248 | 3.0 | 8.0 | 0.00 | 0.02 | 0.02 | 60 | 1018.4 |
| 20260903060018 | 63 | 270 | 1.0 | 5.0 | 0.00 | 0.02 | 0.02 | 60 | 1018.2 |
| 20260903055017 | 62 | 248 | 2.0 | 6.0 | 0.00 | 0.02 | 0.02 | 60 | 1018.2 |
| 20260903054017 | 62 | 225 | 3.0 | 7.0 | 0.00 | 0.02 | 0.02 | 60 | 1018.0 |
| 20260903053018 | 63 | 248 | 6.0 | 11.0 | 0.00 | 0.02 | 0.02 | 59 | 1018.1 |
| 20260903052017 | 63 | 225 | 1.0 | 2.0 | 0.00 | 0.02 | 0.02 | 60 | 1018.1 |
| 20260903051017 | 63 | 248 | 6.0 | 11.0 | 0.00 | 0.02 | 0.02 | 58 | 1018.0 |
| 20260903050017 | 64 | 248 | 5.0 | 10.0 | 0.00 | 0.02 | 0.02 | 57 | 1018.0 |
| 20260903045017 | 65 | 225 | 5.0 | 12.0 | 0.00 | 0.02 | 0.02 | 55 | 1017.9 |
| 20260903044017 | 64 | 225 | 4.0 | 11.0 | 0.00 | 0.02 | 0.02 | 57 | 1018.0 |
| 20260903043017 | 64 | 248 | 5.0 | 11.0 | 0.00 | 0.02 | 0.02 | 57 | 1017.9 |
| 20260903042017 | 64 | 225 | 4.0 | 9.0 | 0.00 | 0.02 | 0.02 | 56 | 1017.9 |
| 20260903041017 | 65 | 225 | 4.0 | 11.0 | 0.00 | 0.02 | 0.02 | 55 | 1017.9 |
| 20260903040017 | 64 | 225 | 3.0 | 8.0 | 0.00 | 0.02 | 0.02 | 57 | 1017.9 |
| 20260903035017 | 64 | 225 | 3.0 | 11.0 | 0.00 | 0.02 | 0.02 | 56 | 1017.9 |
| 20260903034017 | 63 | 225 | 5.0 | 12.0 | 0.00 | 0.02 | 0.02 | 56 | 1017.9 |
| 20260903033017 | 64 | 225 | 4.0 | 9.0 | 0.00 | 0.02 | 0.02 | 56 | 1018.1 |
| 20260903032017 | 63 | 225 | 4.0 | 9.0 | 0.00 | 0.02 | 0.02 | 56 | 1018.0 |
| 20260903031017 | 62 | 225 | 4.0 | 7.0 | 0.00 | 0.02 | 0.02 | 57 | 1018.3 |
| 20260903030017 | 63 | 225 | 4.0 | 9.0 | 0.00 | 0.02 | 0.02 | 57 | 1018.3 |
| 20260903025017 | 63 | 248 | 5.0 | 10.0 | 0.00 | 0.02 | 0.02 | 55 | 1018.4 |
| 20260903024017 | 62 | 248 | 6.0 | 12.0 | 0.00 | 0.02 | 0.02 | 57 | 1018.2 |
| 20260903023017 | 63 | 248 | 5.0 | 12.0 | 0.00 | 0.02 | 0.02 | 57 | 1018.2 |
| 20260903022017 | 62 | 248 | 7.0 | 13.0 | 0.00 | 0.02 | 0.02 | 56 | 1018.3 |
| 20260903021017 | 62 | 270 | 4.0 | 10.0 | 0.00 | 0.02 | 0.02 | 57 | 1018.4 |
| 20260903020017 | 61 | 248 | 5.0 | 10.0 | 0.00 | 0.02 | 0.02 | 59 | 1018.4 |
| 20260903015017 | 61 | 248 | 4.0 | 9.0 | 0.00 | 0.02 | 0.02 | 59 | 1018.5 |
| 20260903014017 | 61 | 248 | 5.0 | 11.0 | 0.00 | 0.02 | 0.02 | 59 | 1018.6 |
| 20260903013017 | 61 | 248 | 5.0 | 13.0 | 0.00 | 0.02 | 0.02 | 56 | 1018.5 |
| 20260903012017 | 60 | 248 | 7.0 | 13.0 | 0.00 | 0.02 | 0.02 | 57 | 1018.6 |
| 20260903011017 | 60 | 225 | 3.0 | 8.0 | 0.00 | 0.02 | 0.02 | 59 | 1018.5 |
| 20260903010017 | 59 | 248 | 5.0 | 9.0 | 0.00 | 0.02 | 0.02 | 61 | 1018.5 |
| 20260903005017 | 59 | 248 | 4.0 | 9.0 | 0.00 | 0.02 | 0.02 | 61 | 1018.5 |
| 20260903004019 | 59 | 248 | 4.0 | 8.0 | 0.00 | 0.02 | 0.02 | 62 | 1018.6 |
| 20260903003019 | 59 | 248 | 7.0 | 12.0 | 0.00 | 0.02 | 0.02 | 62 | 1018.5 |
| 20260903002019 | 58 | 248 | 6.0 | 10.0 | 0.00 | 0.02 | 0.02 | 62 | 1018.4 |
| 20260903001018 | 58 | 248 | 5.0 | 13.0 | 0.00 | 0.02 | 0.02 | 65 | 1018.5 |
| 20260903000019 | 58 | 248 | 7.0 | 15.0 | 0.00 | 0.02 | 0.02 | 64 | 1018.3 |
| 20260902235019 | 58 | 248 | 5.0 | 10.0 | 0.00 | 0.02 | 0.02 | 66 | 1018.5 |
| 20260902234019 | 57 | 248 | 4.0 | 9.0 | 0.00 | 0.02 | 0.02 | 67 | 1018.5 |
| 20260902233019 | 56 | 248 | 7.0 | 12.0 | 0.00 | 0.02 | 0.02 | 68 | 1018.5 |
| 20260902232019 | 56 | 248 | 8.0 | 14.0 | 0.00 | 0.02 | 0.02 | 69 | 1018.4 |
| 20260902231018 | 56 | 248 | 6.0 | 13.0 | 0.00 | 0.02 | 0.02 | 71 | 1018.3 |
| 20260902230029 | 55 | 225 | 4.0 | 9.0 | 0.00 | 0.02 | 0.02 | 73 | 1018.2 |
| 20260902225019 | 55 | 248 | 6.0 | 12.0 | 0.00 | 0.02 | 0.02 | 74 | 1018.1 |
| 20260902224018 | 54 | 248 | 5.0 | 12.0 | 0.00 | 0.02 | 0.02 | 75 | 1017.9 |
| 20260902223018 | 54 | 225 | 3.0 | 9.0 | 0.00 | 0.02 | 0.02 | 79 | 1017.7 |
| 20260902222018 | 53 | 248 | 4.0 | 9.0 | 0.00 | 0.02 | 0.02 | 80 | 1017.3 |
| 20260902221018 | 53 | 248 | 3.0 | 6.0 | 0.00 | 0.02 | 0.02 | 82 | 1017.1 |
| 20260902220018 | 52 | 248 | 2.0 | 9.0 | 0.00 | 0.02 | 0.02 | 83 | 1016.9 |
| 20260902215018 | 52 | 248 | 3.0 | 7.0 | 0.00 | 0.02 | 0.02 | 85 | 1016.7 |
| 20260902214018 | 52 | 248 | 3.0 | 7.0 | 0.00 | 0.02 | 0.02 | 86 | 1016.5 |
| 20260902213018 | 51 | 248 | 2.0 | 7.0 | 0.00 | 0.02 | 0.02 | 86 | 1016.4 |
| 20260902212018 | 51 | 248 | 2.0 | 4.0 | 0.00 | 0.02 | 0.02 | 86 | 1016.1 |
| 20260902211018 | 52 | 248 | 2.0 | 4.0 | 0.00 | 0.02 | 0.02 | 86 | 1015.8 |
| 20260902210018 | 52 | 248 | 2.0 | 4.0 | 0.00 | 0.02 | 0.02 | 87 | 1015.6 |
| 20260902205018 | 52 | 248 | 3.0 | 5.0 | 0.00 | 0.02 | 0.02 | 87 | 1015.5 |
| 20260902204018 | 52 | 248 | 3.0 | 8.0 | 0.00 | 0.02 | 0.02 | 88 | 1015.2 |
| 20260902203018 | 53 | 248 | 3.0 | 9.0 | 0.00 | 0.02 | 0.02 | 88 | 1015.0 |
| 20260902202018 | 53 | 248 | 4.0 | 8.0 | 0.00 | 0.02 | 0.02 | 88 | 1014.8 |
| 20260902201018 | 54 | 248 | 3.0 | 7.0 | 0.00 | 0.02 | 0.02 | 88 | 1014.6 |
| 20260902200018 | 54 | 248 | 3.0 | 8.0 | 0.00 | 0.02 | 0.02 | 88 | 1014.3 |
| 20260902195018 | 55 | 248 | 5.0 | 10.0 | 0.00 | 0.02 | 0.02 | 89 | 1014.1 |
| 20260902194018 | 55 | 248 | 4.0 | 11.0 | 0.00 | 0.02 | 0.02 | 89 | 1013.9 |
| 20260902193018 | 56 | 225 | 4.0 | 8.0 | 0.00 | 0.02 | 0.02 | 88 | 1013.7 |
| 20260902192018 | 56 | 248 | 5.0 | 10.0 | 0.00 | 0.02 | 0.02 | 88 | 1013.4 |
| 20260902191018 | 56 | 225 | 5.0 | 11.0 | 0.00 | 0.02 | 0.02 | 88 | 1013.2 |
| 20260902190018 | 56 | 248 | 4.0 | 9.0 | 0.00 | 0.02 | 0.02 | 88 | 1012.9 |
| 20260902185018 | 56 | 248 | 3.0 | 8.0 | 0.00 | 0.02 | 0.02 | 88 | 1012.5 |
| 20260902184018 | 57 | 248 | 3.0 | 7.0 | 0.00 | 0.02 | 0.02 | 88 | 1012.5 |
| 20260902183018 | 57 | 248 | 2.0 | 5.0 | 0.00 | 0.02 | 0.02 | 89 | 1012.3 |
| 20260902182018 | 58 | 248 | 3.0 | 7.0 | 0.00 | 0.02 | 0.02 | 90 | 1012.1 |
| 20260902181018 | 58 | 225 | 2.0 | 7.0 | 0.00 | 0.02 | 0.02 | 91 | 1012.0 |
| 20260902180018 | 58 | 225 | 2.0 | 4.0 | 0.00 | 0.02 | 0.02 | 91 | 1011.8 |
| 20260902175018 | 58 | 248 | 2.0 | 3.0 | 0.00 | 0.02 | 0.02 | 91 | 1011.8 |
| 20260902174018 | 58 | 248 | 1.0 | 3.0 | 0.00 | 0.02 | 0.02 | 91 | 1011.7 |
| 20260902173018 | 58 | 225 | 2.0 | 3.0 | 0.00 | 0.02 | 0.02 | 91 | 1011.5 |
| 20260902172018 | 57 | 248 | 2.0 | 3.0 | 0.00 | 0.02 | 0.02 | 91 | 1011.3 |
| 20260902171018 | 57 | 225 | 2.0 | 2.0 | 0.00 | 0.02 | 0.02 | 90 | 1011.1 |
| 20260902170018 | 57 | 203 | 1.0 | 2.0 | 0.00 | 0.02 | 0.02 | 90 | 1010.9 |
| 20260902165017 | 58 | 203 | 1.0 | 2.0 | 0.00 | 0.02 | 0.02 | 90 | 1010.7 |
| 20260902164017 | 58 | 0.0 | 2.0 | 0.00 | 0.02 | 0.02 | 90 | 1010.7 | |
| 20260902163017 | 58 | 203 | 1.0 | 2.0 | 0.00 | 0.02 | 0.02 | 90 | 1010.8 |
| 20260902162017 | 58 | 225 | 1.0 | 4.0 | 0.02 | 0.02 | 0.02 | 89 | 1010.8 |
| 20260902161017 | 58 | 203 | 1.0 | 3.0 | 0.02 | 0.02 | 0.02 | 89 | 1010.7 |
| 20260902160017 | 58 | 225 | 1.0 | 3.0 | 0.02 | 0.02 | 0.02 | 89 | 1010.8 |
| 20260902155017 | 58 | 0.0 | 2.0 | 0.02 | 0.02 | 0.02 | 88 | 1010.5 | |
| 20260902154017 | 58 | 203 | 1.0 | 1.0 | 0.02 | 0.02 | 0.02 | 87 | 1010.5 |
| 20260902153018 | 58 | 180 | 1.0 | 4.0 | 0.02 | 0.02 | 0.02 | 87 | 1010.3 |
| 20260902152017 | 58 | 0.0 | 1.0 | 0.00 | 0.00 | 0.01 | 86 | 1010.6 | |
| 20260902151017 | 58 | 158 | 2.0 | 5.0 | 0.00 | 0.00 | 0.00 | 85 | 1010.0 |
| 20260902150018 | 59 | 158 | 1.0 | 4.0 | 0.00 | 0.00 | 0.00 | 85 | 1010.1 |
| 20260902145017 | 59 | 0.0 | 2.0 | 0.00 | 0.00 | 0.00 | 85 | 1010.3 | |
| 20260902144017 | 59 | 0.0 | 2.0 | 0.00 | 0.00 | 0.00 | 84 | 1010.4 | |
| 20260902143017 | 59 | 0.0 | 0.0 | 0.00 | 0.00 | 0.00 | 84 | 1010.6 | |
| 20260902142017 | 60 | 0.0 | 2.0 | 0.00 | 0.00 | 0.00 | 84 | 1010.9 | |
| 20260902141017 | 60 | 0.0 | 2.0 | 0.00 | 0.00 | 0.00 | 84 | 1011.2 | |
| 20260902140027 | 60 | 0.0 | 2.0 | 0.00 | 0.00 | 0.00 | 84 | 1011.2 | |
| 20260902135017 | 60 | 248 | 1.0 | 2.0 | 0.00 | 0.00 | 0.00 | 84 | 1011.2 |
| 20260902134017 | 61 | 0.0 | 0.0 | 0.00 | 0.00 | 0.00 | 84 | 1011.3 | |
| 20260902133017 | 61 | 0.0 | 2.0 | 0.00 | 0.01 | 0.00 | 82 | 1011.8 | |
| 20260902132017 | 61 | 0.0 | 2.0 | 0.00 | 0.01 | 0.00 | 82 | 1011.5 | |
| 20260902131017 | 61 | 0.0 | 0.0 | 0.00 | 0.01 | 0.00 | 81 | 1012.0 | |
| 20260902130017 | 61 | 0.0 | 1.0 | 0.00 | 0.01 | 0.00 | 81 | 1012.3 | |
| 20260902125017 | 61 | 0.0 | 2.0 | 0.00 | 0.01 | 0.00 | 79 | 1011.9 | |
| 20260902124017 | 62 | 0.0 | 0.0 | 0.00 | 0.01 | 0.00 | 78 | 1012.2 | |
| 20260902123019 | 62 | 0.0 | 2.0 | 0.00 | 0.01 | 0.00 | 78 | 1011.9 | |
| 20260902122019 | 63 | 0.0 | 0.0 | 0.00 | 0.01 | 0.00 | 78 | 1012.3 | |
| 20260902121019 | 63 | 0.0 | 2.0 | 0.00 | 0.01 | 0.00 | 77 | 1012.4 | |
| 20260902120019 | 64 | 0.0 | 1.0 | 0.00 | 0.01 | 0.00 | 75 | 1012.5 | |
| 20260902115019 | 64 | 0.0 | 2.0 | 0.00 | 0.02 | 0.00 | 75 | 1012.6 | |
| 20260902114019 | 64 | 0.0 | 0.0 | 0.00 | 0.02 | 0.00 | 73 | 1012.8 | |
| 20260902113019 | 64 | 0.0 | 0.0 | 0.00 | 0.02 | 0.00 | 75 | 1012.7 | |
| 20260902112019 | 64 | 0.0 | 0.0 | 0.00 | 0.02 | 0.00 | 74 | 1013.0 | |
| 20260902111019 | 64 | 0.0 | 0.0 | 0.00 | 0.02 | 0.00 | 77 | 1013.1 | |
| 20260902110019 | 65 | 0.0 | 0.0 | 0.00 | 0.02 | 0.00 | 74 | 1013.1 |